World > North America > United States   City of Washington, DC

Washington, D.C. Regional Weather

Lat: 38.91N, Lon: 77.02W
Wx Zone: DCZ001Web Search

Helpful Tip: Abbreviated, 7 Day, 14 Day Forecasts. There is a weather forecast for every taste.

Feedback
Washington Weather Map
UTC Time: 1/23/2021, 08:41
Your Time:

Washington, DC Regional Weather

Expires:202101230900;;348718
ASUS41 KPHI 230812
RWRPHI

REGIONAL WEATHER ROUNDUP
NATIONAL WEATHER SERVICE MOUNT HOLLY NJ
300 AM EST SAT JAN 23 2021

NOTE:  "FAIR" INDICATES FEW OR NO CLOUDS BELOW 12,000 FEET WITH NO
SIGNIFICANT WEATHER AND/OR OBSTRUCTIONS TO VISIBILITY.

 * = STATION DOES NOT REPORT PRECIPITATION (E.G. RAIN, SNOW, ETC.) 
        OR FOG.


PAZ001-021-NYZ056-072-MDZ011-DCZ001-230900-
OTHER NEARBY LOCATIONS
  
CITY           SKY/WX    TMP DP  RH WIND       PRES   REMARKS
HARRISBURG     CLOUDY    32  15  49 NW17      30.01R WCI  21          
STATE COLLEGE  CLOUDY    23   9  54 W8        30.02R WCI  14          
WILLIAMSPORT   CLOUDY    26   7  44 NW14      30.02R WCI  14          
BINGHAMTON     FLURRIES  18  11  74 W13G22    29.90R WCI   5          
NEW YORK CITY  CLOUDY    32   9  38 W8G22     29.96R WCI  25          
BALTIMORE      MOCLDY    35  12  38 NW14G25   30.03R WCI  26          
WASHINGTON DC  PTCLDY    36  17  46 NW15      30.05R WCI  27          

$$
  

SKY/WX - Weather  TMP - Temperature  DP - Dew Point  RH - Relative Humidity
WIND - Wind Direction/Speed PRES - Barometric Pressure VSB - Visibility
WCI - Wind Chill Index E13G22 Wind - East Wind 13 mph/Gusts of 22 mph